Location: Chillicothe
(39.7950°N, 93.5520°W)
Time: 07:05:27
(UTC-06:00)

BEESAT - Pass Details

Date: 23 November 2019
Orbit: 700 x 709 km, 98.6° (Epoch: 13 December)

Event Time Altitude Azimuth Distance (km) Brightness Sun altitude
Rises 17:34:09 0° 16° (NNE) 3,098 ? -8.1°
Reaches altitude 10° 17:36:26 10° 19° (NNE) 2,176 ? -8.5°
Maximum altitude 17:41:10 66° 102° (ESE) 770 ? -9.3°
Drops below altitude 10° 17:45:53 10° 185° (S) 2,166 ? -10.2°
Sets 17:48:09 0° 188° (S) 3,081 ? -10.6°
